F4DYW-13 Weather Reports


time (UTC)temp
C
wind
direction
speed
KPH
gust
KPH
rain 1hr
cm
rain 24hr
cm
rain mn
cm
humidity
%
barometer
mb
20260503183920 18 0 0.0 0.0 0.00 0.00 0.00 63 1018.6
20260503182205 18 0 0.0 0.0 0.00 0.00 0.00 61 1018.6
20260503180449 18 0 0.0 0.0 0.00 0.00 0.00 60 1018.7
20260503174735 18 0 0.0 0.0 0.00 0.00 0.00 60 1018.7
20260503173018 18 0 0.0 0.0 0.00 0.00 0.00 61 1018.7
20260503171303 18 0 0.0 0.0 0.00 0.00 0.00 61 1018.8
20260503140310 18 0 0.0 0.0 0.00 0.00 0.00 67 1020.0
20260503131123 18 0 0.0 0.0 0.00 0.00 0.00 69 1020.6
20260503120221 18 0 0.0 0.0 0.00 0.00 0.00 70 1021.4
20260503100131 18 0 0.0 0.0 0.00 0.00 0.00 71 1021.7
20260503072536 18 0 0.0 0.0 0.00 0.00 0.00 67 1021.4
20260503070821 18 0 0.0 0.0 0.00 0.00 0.00 66 1021.2
20260503054156 18 0 0.0 0.0 0.00 0.00 0.00 64 1021.2
20260503052436 18 0 0.0 0.0 0.00 0.00 0.00 64 1021.0
20260503050719 18 0 0.0 0.0 0.00 0.00 0.00 63 1021.0
20260503044959 18 0 0.0 0.0 0.00 0.00 0.00 63 1021.1
20260503043241 18 0 0.0 0.0 0.00 0.00 0.00 63 1021.0
20260503041524 18 0 0.0 0.0 0.00 0.00 0.00 63 1021.1
20260503035807 18 0 0.0 0.0 0.00 0.00 0.00 63 1021.2
20260503034049 18 0 0.0 0.0 0.00 0.00 0.00 63 1021.3
20260503032332 18 0 0.0 0.0 0.00 0.00 0.00 62 1021.4
20260503030615 18 0 0.0 0.0 0.00 0.00 0.00 62 1021.5
20260503024857 18 0 0.0 0.0 0.00 0.00 0.00 62 1021.6
20260503023137 18 0 0.0 0.0 0.00 0.00 0.00 62 1021.7
20260503021422 18 0 0.0 0.0 0.00 0.00 0.00 62 1021.8
20260503015701 18 0 0.0 0.0 0.00 0.00 0.00 62 1021.8
20260503013944 18 0 0.0 0.0 0.00 0.00 0.00 61 1021.9
20260503012225 18 0 0.0 0.0 0.00 0.00 0.00 61 1021.9
20260503010508 18 0 0.0 0.0 0.00 0.00 0.00 61 1022.1
20260503004750 18 0 0.0 0.0 0.00 0.00 0.00 61 1022.3
20260503003033 18 0 0.0 0.0 0.00 0.00 0.00 61 1022.6
20260503001316 18 0 0.0 0.0 0.00 0.00 0.00 61 1022.8
20260502235556 18 0 0.0 0.0 0.00 0.00 0.00 60 1023.0
20260502233826 18 0 0.0 0.0 0.00 0.00 0.00 60 1023.0
20260502232055 18 0 0.0 0.0 0.00 0.00 0.00 60 1023.0
20260502230325 18 0 0.0 0.0 0.00 0.00 0.00 60 1023.2
20260502224555 18 0 0.0 0.0 0.00 0.00 0.00 59 1023.3
20260502222824 18 0 0.0 0.0 0.00 0.00 0.00 60 1023.3
20260502221403 18 0 0.0 0.0 0.00 0.00 0.00 59 1023.1
20260502215337 18 0 0.0 0.0 0.00 0.00 0.00 58 1023.2
20260502204416 18 0 0.0 0.0 0.00 0.00 0.00 56 1023.2
20260502202700 18 0 0.0 0.0 0.00 0.00 0.00 57 1023.3
20260502200942 18 0 0.0 0.0 0.00 0.00 0.00 56 1023.2
20260502195225 18 0 0.0 0.0 0.00 0.00 0.00 56 1023.3
20260502193509 18 0 0.0 0.0 0.00 0.00 0.00 55 1023.3
20260502191752 18 0 0.0 0.0 0.00 0.00 0.00 55 1023.1
20260502190036 18 0 0.0 0.0 0.00 0.00 0.00 55 1022.8